Muskegon, MI

10:54 AM EDT on August 26, 2016 (GMT -0400)
Muskegon County

Weather History for KMKG - July, 2013

Change the Weather History Date:

Monday, July 1, 2013

  Actual Average Record
Temperature  
Mean Temperature 70 °F 70 °F  
Max Temperature 83 °F 80 °F 93 °F (1963)
Min Temperature 56 °F 61 °F 44 °F (1982)
Degree Days  
Heating Degree Days 0 1  
Month to date heating degree days 0 1  
Since 1 June heating degree days 52 67  
Since 1 July heating degree days 0 1  
Cooling Degree Days 5 6  
Month to date cooling degree days 5 6  
Year to date cooling degree days 165 140  
Since 1 June cooling degree days 105 111  
Growing Degree Days 18 (Base 50)    
Moisture  
Dew Point 48 °F    
Average Humidity 49    
Maximum Humidity 69    
Minimum Humidity 28    
Precipitation  
Precipitation 0.00 in 0.08 in 1.45 in (1938)
Month to date precipitation 0.00 0.08  
Year to date precipitation 27.02 14.90  
Snow  
Snow 0.00 in 0.00 in - ()
Month to date snowfall 0.0 0.0  
Since 1 June snowfall 0.0 0.0  
Since 1 July snowfall 0.0 0.0  
Snow Depth 0.00 in    
Sea Level Pressure  
Sea Level Pressure 30.06 in    
Wind  
Wind Speed 10 mph (NE)    
Max Wind Speed 26 mph    
Max Gust Speed 38 mph    
Visibility 10 miles    
Events      
T = Trace of Precipitation, MM = Missing Value Source: NWS Daily Summary

Daily Weather History Graph

Daily Weather History Graph

Search for Another Location

Airport or City:

Trip Planner

Search our weather history database for the weather conditions in past years. The results will help you decide how hot, cold, wet, or windy it might be!

Date:

Astronomy

Jul. 01, 2013 Rise Set
Actual Time 6:09 AM EDT 9:28 PM EDT
Civil Twilight 5:33 AM EDT 10:03 PM EDT
Nautical Twilight 4:47 AM EDT 10:49 PM EDT
Astronomical Twilight 3:51 AM EDT 11:45 PM EDT
Moon 1:45 AM EDT (7/1) 3:37 PM EDT (7/1)
Length of Visible Light 16h 29m
Length of Day
15h 19m
Waning Crescent, 35% of the Moon is Illuminated
Jul 1
Waning Crescent
Jul 8
New
Jul 15
First Quarter
Jul 22
Full
Jul 29
Last Quarter

Hourly Weather History & Observations

Time (EDT) Temp. Dew Point Humidity Pressure Visibility Wind Dir Wind Speed Gust Speed Precip Events Conditions
12:55 AM 64.0 °F 48.0 °F 56% 30.01 in 10.0 mi NE 3.5 mph - N/A   Clear
1:55 AM 61.0 °F 48.9 °F 64% 30.01 in 10.0 mi NE 4.6 mph - N/A   Clear
2:55 AM 60.1 °F 50.0 °F 69% 30.01 in 10.0 mi NNE 5.8 mph - N/A   Clear
3:55 AM 59.0 °F 48.9 °F 69% 30.01 in 10.0 mi NNE 6.9 mph - N/A   Clear
4:55 AM 59.0 °F 48.9 °F 69% 30.03 in 10.0 mi North 9.2 mph - N/A   Clear
5:55 AM 57.9 °F 46.9 °F 67% 30.04 in 10.0 mi NE 5.8 mph - N/A   Clear
6:55 AM 57.0 °F 46.0 °F 67% 30.04 in 10.0 mi North 6.9 mph - N/A   Scattered Clouds
7:55 AM 59.0 °F 46.9 °F 64% 30.06 in 10.0 mi Variable 6.9 mph - N/A   Scattered Clouds
8:55 AM 64.0 °F 46.9 °F 54% 30.06 in 10.0 mi NE 10.4 mph - N/A   Scattered Clouds
9:55 AM 69.1 °F 48.0 °F 47% 30.07 in 10.0 mi NE 5.8 mph - N/A   Mostly Cloudy
10:55 AM 73.9 °F 46.9 °F 38% 30.07 in 10.0 mi NE 11.5 mph 18.4 mph N/A   Mostly Cloudy
11:55 AM 77.0 °F 46.9 °F 34% 30.07 in 10.0 mi NNE 12.7 mph - N/A   Mostly Cloudy
12:55 PM 79.0 °F 48.0 °F 34% 30.07 in 10.0 mi NE 12.7 mph 27.6 mph N/A   Mostly Cloudy
1:55 PM 81.0 °F 46.9 °F 30% 30.07 in 10.0 mi NE 13.8 mph 25.3 mph N/A   Mostly Cloudy
2:55 PM 81.0 °F 46.0 °F 29% 30.06 in 10.0 mi East 17.3 mph 29.9 mph N/A   Mostly Cloudy
3:55 PM 82.0 °F 46.0 °F 28% 30.07 in 10.0 mi ENE 20.7 mph 27.6 mph N/A   Mostly Cloudy
4:55 PM 81.0 °F 48.9 °F 33% 30.06 in 10.0 mi ENE 16.1 mph 24.2 mph N/A   Scattered Clouds
5:55 PM 80.1 °F 46.9 °F 31% 30.07 in 10.0 mi ENE 17.3 mph 25.3 mph N/A   Scattered Clouds
6:55 PM 79.0 °F 46.9 °F 32% 30.06 in 10.0 mi East 15.0 mph 21.9 mph N/A   Scattered Clouds
7:55 PM 77.0 °F 48.0 °F 36% 30.08 in 10.0 mi East 12.7 mph 19.6 mph N/A   Scattered Clouds
8:55 PM 73.9 °F 50.0 °F 43% 30.08 in 10.0 mi East 8.1 mph - N/A   Partly Cloudy
9:55 PM 71.1 °F 50.0 °F 47% 30.09 in 10.0 mi East 8.1 mph - N/A   Clear
10:55 PM 66.0 °F 48.9 °F 54% 30.10 in 10.0 mi ENE 4.6 mph - N/A   Partly Cloudy
11:55 PM 64.0 °F 48.0 °F 56% 30.10 in 10.0 mi ENE 5.8 mph - N/A   Clear